Regional Weather Roundup
Issued by NWS

Home | Current Version | Previous Version | Text Only | Print | Product List | Glossary Off
Versions: 1 2 3 4 5 6 7 8 9 10 11 12 13 14 15 16 17 18 19 20 21 22 23 24 25 26 27 28 29 30 31 32 33 34 35 36 37 38 39 40 41 42 43 44 45 46 47 48 49 50

000
ASUS45 KCYS 240710
RWRWY

WYOMING REGIONAL WEATHER ROUNDUP
NATIONAL WEATHER SERVICE CHEYENNE WY
100 AM MDT THU JUL 24 2014

NOTE:  "FAIR" INDICATES FEW OR NO CLOUDS BELOW 12,000 FEET
WITH NO SIGNIFICANT WEATHER AND/OR OBSTRUCTIONS TO VISIBILITY.

WYZ001-240800-
YELLOWSTONE NATIONAL PARK

CITY           SKY/WX    TMP DP  RH WIND       PRES   REMARKS
LK YELLOWSTONE   N/A     48  38  68 NW3       30.26F
W YELLOWSTONE  NOT AVBL

$$
WYZ002>013-054>058-071-098>099-240800-
NORTHERN WYOMING

CITY           SKY/WX    TMP DP  RH WIND       PRES   REMARKS
JACKSON        PTCLDY    54  39  58 N3        30.15R
CODY           NOT AVBL
GREYBULL       CLEAR     74  47  38 S5        29.89R
WORLAND        CLEAR     73  43  33 S5        29.92R
SHERIDAN       CLEAR     66  56  70 CALM      29.90F
BUFFALO        CLEAR     73  53  49 S6        30.01F
GILLETTE       MOCLDY    75  59  57 NE9       29.98F
HULETT         FAIR      73  57  56 MISG      30.02
NEWCASTLE      FAIR      79  59  50 SE10G18   30.03

$$
WYZ014>020-022>026-101>103-240800-
CENTRAL WYOMING

CITY           SKY/WX    TMP DP  RH WIND       PRES   REMARKS
BIG PINEY      MOCLDY    63  48  58 N8        30.24F
PINEDALE       CLOUDY    63  48  59 N9        30.26F
DUBOIS         FAIR      59  32  36 NW13      30.23R
LANDER         MOCLDY    82  37  20 SW20G30   30.07R
RIVERTON       MOCLDY    80  37  21 W10       30.09S
CASPER         MOCLDY    80  37  21 SW13      30.07S
DOUGLAS        PTCLDY    69  46  43 SE7       30.07F

$$
WYZ021-027>030-104>119-240800-
SOUTHERN WYOMING

CITY           SKY/WX    TMP DP  RH WIND       PRES   REMARKS
EVANSTON       PTCLDY    68  42  38 S8        30.23F
KEMMERER       MOSUNNY  N/A N/A N/A SE3       30.26S
FORT BRIDGER   FAIR      72  36  26 S13G18    30.25F
ROCK SPRINGS   MOCLDY    70  33  25 NW6       30.24R
DIXON          FAIR      73  38  28 E9        30.27F
RAWLINS        PTCLDY    75  37  25 S28G36    30.24F
SARATOGA       FAIR      70  41  35 SE13G20   30.31S
LARAMIE        PTCLDY    65  44  46 S5        30.31F
CHEYENNE       MOCLDY    70  46  42 SW15G29   30.22F
TORRINGTON     MOCLDY    72  59  63 SE8       30.06R
PINE BLUFFS    FAIR      70  46  43 S7        30.16F

$$


USA.gov is the U.S. government's official web portal to all federal, state and local government web resources and services.